Flag for New Zealand Weather past 2 weeks in Auckland, New Zealand

Now
55 °F

Cool.


Feels Like: 51 °F
Forecast: 46 / 60 °F
Wind: 18 mph from Southwest

Location: Auckland Airport

Current Time: Oct 24, 2014 at 9:03:07 PM

Latest Report: Oct 24, 2014 at 8:30 PM


Visibility: N/A

Pressure: 30.01 "Hg

Humidity: 67%

Dew point: 45 °F

Location of AucklandLocation

Historic Weather in Auckland — Graph

°F

Auckland temperature yesterday

Maximum temperature yesterday: 66 °F (at 2:00 PM)
Minimum temperature yesterday: 57 °F (at 12:00 AM)
Average temperature yesterday: 60 °F

Past Weeks' High & Low Weather Summary

 TemperatureHumidityPressure
High70 °F (Oct 17, 1:00 PM)100% (Oct 11, 7:30 AM)30.33 "Hg (Oct 11, 7:30 AM)
Low50 °F (Oct 11, 7:30 AM)55% (Oct 24, 5:30 PM)29.92 "Hg (Oct 10, 4:30 PM)
Average59 °F81%30.10 "Hg
* Reported Oct 9 7:00 PM — Oct 24 7:30 PM, Auckland, Weather by CustomWeather, © 2014

Note: Actual official high and low records may vary slightly from our data, if they occured in-between our weather recording intervals... More about our weather records

Advertising

Auckland weather history for previous 24 hours

 ConditionsComfort  
Time TempWeatherWind HumidityBarometerVisibility
7:30 PM
Oct 24
55 °FBroken clouds.23 mph59%29.98 "HgN/A
7:00 PM57 °FPartly sunny.23 mph55%29.98 "HgN/A
6:30 PM57 °FScattered clouds.24 mph63%29.98 "HgN/A
6:00 PM59 °FPartly sunny.24 mph63%29.95 "HgN/A
5:30 PM59 °FPartly sunny.26 mph55%29.95 "HgN/A
5:00 PM59 °FPartly sunny.28 mph59%29.95 "HgN/A
4:30 PM61 °FPartly sunny.26 mph63%29.95 "HgN/A
3:30 PM61 °FBroken clouds.26 mph63%29.95 "HgN/A
3:00 PM61 °FPartly sunny.25 mph68%29.95 "HgN/A
2:30 PM61 °FPartly sunny.23 mph72%29.95 "HgN/A
2:00 PM59 °FPartly sunny.21 mph88%29.95 "HgN/A
1:30 PM59 °FSprinkles. Cloudy.24 mph88%29.95 "HgN/A
1:00 PM63 °FBroken clouds.18 mph68%29.95 "HgN/A
12:30 PM63 °FBroken clouds.17 mph68%29.98 "HgN/A
12:00 PM63 °FBroken clouds.20 mph73%29.98 "HgN/A
11:30 AM61 °FBroken clouds.21 mph72%29.98 "HgN/A
11:00 AM59 °FPartly sunny.21 mph77%29.98 "HgN/A
10:30 AM61 °FPassing clouds.20 mph72%29.98 "HgN/A
10:00 AM57 °FScattered clouds.20 mph82%29.95 "HgN/A
9:30 AM59 °FPartly sunny.22 mph77%29.95 "HgN/A
9:00 AM57 °FBroken clouds.22 mph82%29.95 "HgN/A
8:30 AM55 °FSprinkles. Mostly cloudy.18 mph94%29.95 "Hg3 mi
8:00 AM57 °FPartly sunny.17 mph82%29.95 "HgN/A
7:30 AM55 °FSprinkles. Mostly cloudy.20 mph88%29.95 "HgN/A
7:00 AM55 °FSprinkles. Partly sunny.16 mph88%29.95 "HgN/A
6:30 AM55 °FSprinkles. Mostly cloudy.22 mph88%29.95 "Hg4 mi
6:00 AM57 °FMostly cloudy.13 mph77%29.92 "HgN/A
5:30 AM57 °FPassing clouds.16 mph77%29.92 "HgN/A
5:00 AM57 °FPassing clouds.16 mph82%29.92 "HgN/A
4:30 AM57 °FDrizzle. Mostly cloudy.16 mph88%29.92 "HgN/A
4:00 AM57 °FOvercast.16 mph82%29.92 "HgN/A
3:30 AM57 °FMostly cloudy.13 mph88%29.92 "HgN/A
3:00 AM55 °FSprinkles. Mostly cloudy.14 mph94%29.95 "HgN/A
2:30 AM57 °FPassing clouds.14 mph82%29.95 "HgN/A
2:00 AM59 °FPartly cloudy.15 mph77%29.95 "HgN/A
1:30 AM59 °FPassing clouds.12 mph82%29.95 "HgN/A
1:00 AM57 °FOvercast.12 mph82%29.98 "HgN/A
12:30 AM57 °FOvercast.12 mph88%29.98 "HgN/A
12:00 AM57 °FSprinkles. Mostly cloudy.14 mph88%29.98 "HgN/A
11:30 PM
Oct 23
59 °FOvercast.10 mph82%29.98 "HgN/A
11:00 PM59 °FOvercast.9 mph82%29.98 "HgN/A
10:30 PM59 °FSprinkles. Mostly cloudy.10 mph82%30.01 "HgN/A
10:00 PM59 °FScattered showers. Passing clouds.9 mph82%29.98 "HgN/A
9:30 PM57 °FPassing clouds.9 mph88%29.98 "HgN/A
9:00 PM59 °FPassing clouds.10 mph82%29.98 "HgN/A
Weather by CustomWeather, © 2014

See weather overviewHow to use our weather pages